Regional Weather Roundup
Issued by NWS

Home | Current Version | Previous Version | Graphics & Text | Print | Product List | Glossary On
Versions: 1 2 3 4 5 6 7 8 9 10 11 12 13 14 15 16 17 18 19 20 21 22 23 24 25 26 27 28 29 30 31 32 33 34 35 36 37 38 39 40 41 42 43 44 45 46 47 48 49 50
000
ASUS43 KBIS 050910
RWRND

NORTH DAKOTA REGIONAL WEATHER ROUNDUP
NATIONAL WEATHER SERVICE BISMARCK ND
400 AM CDT TUE MAY 05 2015

NOTE: "FAIR" INDICATES FEW OR NO CLOUDS BELOW 12,000 FEET WITH NO
SIGNIFICANT WEATHER AND/OR OBSTRUCTIONS TO VISIBILITY.


NDZ001>003-009>011-017-051000-
NORTHWEST NORTH DAKOTA

CITY           SKY/WX    TMP DP  RH WIND       PRES   REMARKS
WILLISTON      CLEAR     51  29  42 S6        29.98F
MINOT          CLOUDY    55  29  36 SE8       30.05F
MINOT AFB      CLOUDY    51  35  52 SE7       30.04F
$$

NDZ018>021-031>035-040>046-051000-
SOUTHWEST NORTH DAKOTA

CITY           SKY/WX    TMP DP  RH WIND       PRES   REMARKS
BISMARCK       CLOUDY    53  30  41 E7        30.09F
DICKINSON      CLOUDY    46  28  49 SE10      30.01F
GARRISON         N/A     52  32  46 SE10      30.06F
HETTINGER ARPT CLOUDY    50  27  40 SE13      30.03F
$$

NDZ004>008-012>016-024-026-027-054-051000-
NORTHEAST NORTH DAKOTA

CITY           SKY/WX    TMP DP  RH WIND       PRES   REMARKS
GRAND FORKS    CLEAR     40  25  55 S3        30.16F
GRND FRKS AFB  CLEAR     37  25  60 S6        30.16F
DEVILS LAKE    MOCLDY    50  34  53 SE7       30.13F
$$

NDZ022-023-025-028>030-036>039-047>053-051000-
SOUTHEAST NORTH DAKOTA

CITY           SKY/WX    TMP DP  RH WIND       PRES   REMARKS
FARGO          CLEAR     50  26  39 SE7       30.17F
JAMESTOWN      PTCLDY    50  27  40 SE12      30.14F
$$



USA.gov is the U.S. government's official web portal to all federal, state and local government web resources and services.